Home   Weather   Braunschweig   Past weeks

Flag for Germany Past Weather in Braunschweig, Lower Saxony, Germany — Yesterday and Last 2 Weeks

Now
32 °F

Passing clouds.


Feels Like: 32 °F
Forecast: 24 / 33 °F
Wind: No wind

Location: Braunschweig Wolfsburg

Current Time: Jan 20, 2017 at 7:08:50 pm

Latest Report: Jan 20, 2017 at 6:20 pm


Visibility: N/A

Pressure: 30.54 "Hg

Humidity: 87%

Dew Point: 28 °F

Location of BraunschweigLocation

Past Weather in Braunschweig — Graph

°F

Braunschweig Temperature Yesterday

Maximum temperature yesterday: 34 °F (at 2:20 pm)
Minimum temperature yesterday: 23 °F (at 6:50 am)
Average temperature yesterday: 30 °F

High & Low Weather Summary for the Past Weeks

 TemperatureHumidityPressure
High43 °F (Jan 12, 12:50 pm)100% (Jan 8, 1:50 pm)30.77 "Hg (Jan 8, 1:50 pm)
Low12 °F (Jan 6, 6:50 am)48% (Jan 8, 9:50 am)28.94 "Hg (Jan 13, 6:50 am)
Average31 °F85%30.18 "Hg
* Reported Jan 5 5:20 pm — Jan 20 5:20 pm, Braunschweig, Weather by CustomWeather, © 2017

Note: Actual official high and low records may vary slightly from our data, if they occured in-between our weather recording intervals... More about our weather records

Advertising

Braunschweig Weather History for the Previous 24 Hours

Scroll right to see more
 ConditionsComfort  
Time TempWeatherWind HumidityBarometerVisibility
5:20 pm
Fri, Jan 20
32 °FPassing clouds.No wind75%30.57 "HgN/A
4:20 pm37 °FSunny.No wind65%30.57 "Hg10 mi
3:50 pm37 °FSunny.No wind65%30.57 "Hg10 mi
3:20 pm39 °FSunny.No wind61%30.57 "Hg10 mi
2:20 pm39 °FScattered clouds.No wind61%30.57 "HgN/A
1:20 pm39 °FScattered clouds.No wind61%30.57 "HgN/A
12:50 pm39 °FPassing clouds.No wind56%30.60 "HgN/A
12:20 pm37 °FPassing clouds.No wind60%30.60 "HgN/A
11:20 am34 °FSunny.No wind75%30.60 "Hg10 mi
10:50 am36 °FSunny.No wind75%30.60 "Hg10 mi
10:20 am32 °FPassing clouds.No wind80%30.60 "HgN/A
9:50 am32 °FSunny.No wind87%30.60 "Hg10 mi
9:20 am32 °FSunny.No wind87%30.60 "Hg10 mi
8:50 am30 °FSunny.No wind93%30.60 "Hg10 mi
8:20 am30 °FSunny.No wind93%30.60 "Hg10 mi
7:20 am30 °FClear.No wind93%30.60 "Hg4 mi
6:20 am30 °FClear.No wind93%30.60 "Hg5 mi
5:50 am30 °FClear.No wind93%30.60 "Hg5 mi
9:50 pm
Thu, Jan 19
30 °FClear.No wind93%30.66 "Hg6 mi
9:20 pm30 °FClear.No wind86%30.66 "Hg10 mi
8:20 pm30 °FClear.No wind86%30.66 "Hg10 mi
7:50 pm32 °FClear.3 mph80%30.63 "Hg10 mi
7:20 pm30 °FClear.3 mph86%30.63 "Hg10 mi
Weather by CustomWeather, © 2017

See weather overviewHow to use our weather pages